This is the latest recevied weather packets stored in our database for station/object KM7BEO. If no packets are shown the sender has not sent any weather packets the latest 10 day(s).
| Time | Temp. | Humidity | Pressure | Rain* | Wind** | Luminosity | Snow |
|---|---|---|---|---|---|---|---|
| 1777586781 | 16.67° C | 69% | 1018 hPa | 0 mm | - | 152 W/m² | - |
| 1777586476 | 16.67° C | 68% | 1018.1 hPa | 0 mm | - | 156 W/m² | - |
| 1777586171 | 16.67° C | 70% | 1018 hPa | 0 mm | - | 168 W/m² | - |
| 1777585869 | 16.67° C | 71% | 1017.8 hPa | 0 mm | - | 158 W/m² | - |
| 1777585564 | 16.67° C | 70% | 1018.1 hPa | 0 mm | - | 157 W/m² | - |
| 1777585260 | 16.67° C | 70% | 1018.3 hPa | 0 mm | - | 154 W/m² | - |
| 1777584955 | 16.67° C | 72% | 1018.2 hPa | 0 mm | - | 170 W/m² | - |
| 1777584653 | 16.11° C | 73% | 1018.4 hPa | 0 mm | - | 185 W/m² | - |
| 1777584349 | 16.11° C | 71% | 1018.4 hPa | 0 mm | - | 185 W/m² | - |
| 1777584045 | 16.67° C | 69% | 1018.5 hPa | 0 mm | - | 196 W/m² | - |
| 1777583740 | 17.22° C | 68% | 1018.2 hPa | 0 mm | - | 210 W/m² | - |
| 1777583439 | 17.78° C | 65% | 1018.3 hPa | 0 mm | - | 168 W/m² | - |
| 1777583139 | 17.78° C | 66% | 1018.4 hPa | 0 mm | - | 157 W/m² | - |
| 1777582834 | 17.78° C | 66% | 1018.3 hPa | 0 mm | - | 264 W/m² | - |
| 1777582532 | 17.22° C | 66% | 1018.4 hPa | 0 mm | - | 469 W/m² | - |
| 1777582227 | 17.78° C | 65% | 1018.4 hPa | 0 mm | - | 673 W/m² | - |
| 1777581925 | 17.78° C | 65% | 1018.6 hPa | 0 mm | - | 624 W/m² | - |
| 1777581620 | 17.78° C | 64% | 1018.5 hPa | 0 mm | - | 691 W/m² | - |
| 1777581314 | 17.78° C | 66% | 1018.6 hPa | 0 mm | - | 691 W/m² | - |
| 1777581010 | 17.22° C | 67% | 1018.5 hPa | 0 mm | - | 653 W/m² | - |
| 1777580709 | 17.22° C | 65% | 1018.6 hPa | 0 mm | - | 642 W/m² | - |
| 1777580405 | 17.22° C | 65% | 1018.7 hPa | 0 mm | - | 548 W/m² | - |
| 1777580101 | 17.22° C | 65% | 1018.7 hPa | 0 mm | - | 555 W/m² | - |
| 1777579798 | 17.22° C | 64% | 1018.9 hPa | 0 mm | - | 643 W/m² | - |
| 1777579496 | 17.78° C | 65% | 1019.1 hPa | 0 mm | - | 627 W/m² | - |
* Rain latest hour (hover to see other rain measurements)
** Current wind speed in m/s (hover to see current wind gust speed)